Location: Golden Pond Observatory
(36.7773°N, 88.0631°W)
Time: 11:54:42
(UTC-06:00)

Hubble Space Telescope - Pass Details

Date: 23 November 2019
Orbit: 536 x 540 km, 28.5° (Epoch: 05 December)

Event Time Altitude Azimuth Distance (km) Brightness Sun altitude
Rises 17:41:12 0° 247° (WSW) 2,667 6.3 -12.5°
Reaches altitude 10° 17:43:43 10° 234° (SW) 1,777 4.6 -13.0°
Maximum altitude 17:47:08 25° 178° (S) 1,090 2.5 -13.7°
Enters shadow 17:50:10 12° 125° (SE) 1,659 2.9 -14.3°
